Terminal Aerodrome Forecast
Issued by NWS Los Angeles, CA

Home | Current Version | Previous Version | Text Only | Print | Product List | Glossary On
Versions: 1 2 3 4 5 6 7 8 9 10 11 12 13 14 15 16 17 18 19 20 21 22 23 24 25 26 27 28
323
FTUS46 KLOX 291021 AAA
TAFSMX
TAF AMD
KSMX 291021Z 2910/3006 33005KT 1SM BR OVC002
     FM291200 VRB03KT 1/2SM FG VV001
     FM291500 VRB03KT 2SM BR OVC004
     FM291600 30006KT P6SM SKC
     FM292000 30010KT P6SM SKC
     FM300300 VRB03KT 6SM BR BKN005=

USA.gov is the U.S. government's official web portal to all federal, state and local government web resources and services.